Tracking 20083 objects as of 9-Dec-2019
HD Live streaming from Space Station
objects crossing your sky now

COSMOS 2251 DEB

Track COSMOS 2251 DEB now!
10-day predictions


NORAD ID: 36454
Int'l Code: 1993-036BBD
Perigee: 637.7 km
Apogee: 649.9 km
Inclination: 74.0 °
Period: 97.5 minutes
Semi major axis: 7014 km
RCS: 0.003 m2 (small)
Launch date: June 16, 1993
Source: Commonwealth of Independent States (former USSR) (CIS)
Launch site: PLESETSK MISSILE AND SPACE COMPLEX (PKMTR)

Note: This is SATELLITE DEBRIS
aabbcc
Your satellite tracking list
Your tracking list is empty




NASA's NSSDC Master Catalog

Two Line Element Set (TLE):
1 36454U 93036BBD 19339.95040159  .00002335  00000-0  33068-3 0  9997
2 36454  74.0050  57.7571 0008690 105.4906 254.7229 14.77665151534118
Source of the keplerian elements: AFSPC